sat.trackr.live / text

‹ back to catalog

STARLINK-33855

NORAD 64335 · 2025-124U

PAYLOAD ACTIVE UNKNOWN

§ Identity

Operator
Country
US
Launch date
2025-06-10
Launch site
AFETR
Launch vehicle
Mass (kg)
RCS (m²)

Purposes: comms

External: N2YO · Heavens-Above · Gunter

§ Orbital elements

Epoch: 2026-09-20T22:36:44.215488Z

Period
94.27 min
Inclination
43.0030°
Eccentricity
0.0001977
Mean motion
15.27604911 rev/d
Perigee alt
481.6 km
Apogee alt
484.3 km
Semi-major
6,861.1 km
B*
5.0664e-4
RAAN
98.8575°
Arg perigee
280.0518°
Mean anomaly
80.0110°
Rev number
7,164

§ Raw data

STARLINK-338551 64335U 25124U   26263.94217842  .00013716  00000+0  50664-3 0  99922 64335  43.0030  98.8575 0001977 280.0518  80.0110 15.27604911 71647

JSON: /api/v1/satellites/64335 · /tle

For live sub-satellite position, see the globe view (requires WebGL).

§ Visibility from observer

Set your observer location to see the next 7 days of passes ≥ 10°. The values pass through the URL so the page stays shareable.

No JS? Fill the form by hand. The geolocation button needs JavaScript.